When you browse on this site, cookies collect data to enhance your experience and personalize the content and advertising you see.
Visit our Privacy Policy to learn more. By continuing to use the site, you agree to this use of cookies and data.
  • In Hungary
  • List of Countries
  • For 7 days
  • Water Temperature
  • Weather Map
  • News
  • Weather Widgets
  • user-avatar
    Login

    Hourly Weather Kestenga

    Today, 25 August, Sunday

    Time Temperature Precipitation Wind Pressure Humidity
    00:00 +9°C° 0 mm 1 mps 756 mmHg 95%
    01:00 +9°C° 0 mm 1 mps 757 mmHg 95%
    02:00 +9°C° 0 mm 1 mps 757 mmHg 96%
    03:00 +9°C° 0 mm 1 mps 757 mmHg 96%
    04:00 +8°C° 0 mm 1 mps 758 mmHg 96%
    05:00 +8°C° 0 mm 1 mps 758 mmHg 96%
    06:00 +10°C° 0 mm 1 mps 758 mmHg 93%
    07:00 +11°C° 0 mm 1 mps 758 mmHg 90%
    08:00 +11°C° 0 mm 0 mps 758 mmHg 84%
    09:00 +13°C° 0 mm 1 mps 758 mmHg 80%
    10:00 +14°C° 0 mm 1 mps 757 mmHg 75%
    11:00 +15°C° 0 mm 1 mps 757 mmHg 70%
    12:00 +15°C° 0.1 mm 1 mps 757 mmHg 69%
    13:00 +16°C° 0.1 mm 2 mps 756 mmHg 67%
    14:00 +16°C° 0.1 mm 3 mps 756 mmHg 66%
    15:00 +15°C° 0.3 mm 2 mps 755 mmHg 71%
    16:00 +15°C° 0.3 mm 2 mps 755 mmHg 77%
    17:00 +14°C° 0.3 mm 2 mps 754 mmHg 82%
    18:00 +12°C° 1.3 mm 3 mps 754 mmHg 86%
    19:00 +12°C° 1.3 mm 3 mps 753 mmHg 90%
    20:00 +11°C° 1.3 mm 4 mps 752 mmHg 94%
    21:00 +11°C° 1.4 mm 4 mps 751 mmHg 95%
    22:00 +10°C° 1.4 mm 5 mps 750 mmHg 95%
    23:00 +10°C° 1.4 mm 5 mps 749 mmHg 95%

    Tomorrow, 26 August, Monday

    Time Temperature Precipitation Wind Pressure Humidity
    00:00 +12°C° 0.6 mm 5 mps 749 mmHg 95%
    01:00 +12°C° 0.6 mm 5 mps 748 mmHg 95%
    02:00 +12°C° 0.6 mm 4 mps 748 mmHg 95%
    03:00 +12°C° 0 mm 4 mps 747 mmHg 94%
    04:00 +12°C° 0 mm 4 mps 746 mmHg 94%
    05:00 +12°C° 0 mm 4 mps 746 mmHg 93%
    06:00 +13°C° 0.1 mm 5 mps 746 mmHg 91%
    07:00 +13°C° 0.1 mm 5 mps 746 mmHg 89%
    08:00 +13°C° 0.1 mm 5 mps 746 mmHg 87%
    09:00 +13°C° 0 mm 6 mps 746 mmHg 83%
    10:00 +14°C° 0 mm 6 mps 746 mmHg 79%
    11:00 +14°C° 0 mm 6 mps 746 mmHg 75%
    12:00 +14°C° 0.3 mm 6 mps 747 mmHg 77%
    13:00 +14°C° 0.3 mm 6 mps 747 mmHg 78%
    14:00 +14°C° 0.3 mm 6 mps 747 mmHg 79%
    15:00 +14°C° 0 mm 6 mps 748 mmHg 78%
    16:00 +14°C° 0 mm 5 mps 748 mmHg 76%
    17:00 +14°C° 0 mm 5 mps 749 mmHg 75%
    18:00 +13°C° 0 mm 5 mps 749 mmHg 77%
    19:00 +12°C° 0 mm 4 mps 750 mmHg 79%
    20:00 +11°C° 0 mm 4 mps 750 mmHg 81%
    21:00 +11°C° 0 mm 4 mps 751 mmHg 83%
    22:00 +10°C° 0 mm 4 mps 752 mmHg 85%
    23:00 +8°C° 0 mm 4 mps 752 mmHg 86%

    Day after tomorrow, 27 August, Tuesday

    Time Temperature Precipitation Wind Pressure Humidity
    00:00 +9°C° 0 mm 3 mps 753 mmHg 89%
    01:00 +8°C° 0 mm 3 mps 754 mmHg 91%
    02:00 +7°C° 0 mm 3 mps 754 mmHg 94%
    03:00 +7°C° 0 mm 2 mps 755 mmHg 95%
    04:00 +7°C° 0 mm 2 mps 756 mmHg 96%
    05:00 +6°C° 0 mm 2 mps 756 mmHg 97%
    06:00 +7°C° 0 mm 2 mps 757 mmHg 90%
    07:00 +9°C° 0 mm 2 mps 757 mmHg 84%
    08:00 +11°C° 0 mm 1 mps 757 mmHg 77%
    09:00 +12°C° 0 mm 1 mps 758 mmHg 73%
    10:00 +12°C° 0 mm 1 mps 758 mmHg 70%
    11:00 +13°C° 0 mm 1 mps 758 mmHg 66%
    12:00 +13°C° 0 mm 1 mps 759 mmHg 64%
    13:00 +14°C° 0 mm 1 mps 759 mmHg 62%
    14:00 +14°C° 0 mm 1 mps 759 mmHg 60%
    15:00 +14°C° 0 mm 1 mps 759 mmHg 65%
    16:00 +13°C° 0 mm 1 mps 759 mmHg 69%
    17:00 +12°C° 0 mm 2 mps 759 mmHg 74%
    18:00 +10°C° 0.1 mm 2 mps 759 mmHg 77%
    19:00 +10°C° 0.1 mm 2 mps 759 mmHg 80%
    20:00 +9°C° 0.1 mm 3 mps 759 mmHg 83%
    21:00 +9°C° 0 mm 3 mps 759 mmHg 84%
    22:00 +9°C° 0 mm 3 mps 759 mmHg 84%
    23:00 +8°C° 0 mm 4 mps 759 mmHg 85%

    28 August, Wednesday

    Time Temperature Precipitation Wind Pressure Humidity
    00:00 +8°C° 0 mm 4 mps 759 mmHg 84%
    01:00 +8°C° 0 mm 4 mps 759 mmHg 84%
    02:00 +8°C° 0 mm 4 mps 759 mmHg 83%
    03:00 +8°C° 0 mm 4 mps 758 mmHg 85%
    04:00 +8°C° 0 mm 4 mps 758 mmHg 86%
    05:00 +9°C° 0 mm 3 mps 758 mmHg 87%
    06:00 +10°C° 0 mm 3 mps 758 mmHg 86%
    07:00 +10°C° 0 mm 3 mps 758 mmHg 84%
    08:00 +11°C° 0 mm 3 mps 758 mmHg 82%
    09:00 +14°C° 0 mm 2 mps 757 mmHg 80%
    10:00 +15°C° 0 mm 2 mps 757 mmHg 77%
    11:00 +16°C° 0 mm 1 mps 757 mmHg 74%
    12:00 +19°C° 0 mm 1 mps 757 mmHg 70%
    13:00 +21°C° 0 mm 1 mps 757 mmHg 65%
    14:00 +22°C° 0 mm 1 mps 757 mmHg 61%
    15:00 +22°C° 0 mm 1 mps 757 mmHg 63%
    16:00 +22°C° 0 mm 1 mps 756 mmHg 65%
    17:00 +22°C° 0 mm 1 mps 756 mmHg 67%
    18:00 +20°C° 0 mm 1 mps 756 mmHg 74%
    19:00 +19°C° 0 mm 1 mps 756 mmHg 82%
    20:00 +16°C° 0 mm 1 mps 756 mmHg 89%
    21:00 +15°C° 0 mm 1 mps 756 mmHg 90%
    22:00 +15°C° 0 mm 1 mps 757 mmHg 92%
    23:00 +14°C° 0 mm 1 mps 757 mmHg 93%

    29 August, Thursday

    Time Temperature Precipitation Wind Pressure Humidity
    00:00 +14°C° 0 mm 1 mps 757 mmHg 93%
    01:00 +14°C° 0 mm 1 mps 757 mmHg 94%
    02:00 +14°C° 0 mm 1 mps 757 mmHg 94%
    03:00 +14°C° 0 mm 1 mps 757 mmHg 94%
    04:00 +14°C° 0 mm 1 mps 756 mmHg 94%
    05:00 +14°C° 0 mm 1 mps 756 mmHg 95%
    06:00 +15°C° 0 mm 1 mps 756 mmHg 90%
    07:00 +18°C° 0 mm 1 mps 756 mmHg 85%
    08:00 +19°C° 0 mm 1 mps 756 mmHg 80%
    09:00 +19°C° 0 mm 2 mps 756 mmHg 74%
    10:00 +21°C° 0 mm 2 mps 756 mmHg 68%
    11:00 +23°C° 0 mm 2 mps 756 mmHg 63%
    12:00 +24°C° 0 mm 2 mps 755 mmHg 60%
    13:00 +24°C° 0 mm 2 mps 755 mmHg 58%
    14:00 +25°C° 0 mm 2 mps 755 mmHg 56%
    15:00 +24°C° 0 mm 2 mps 755 mmHg 59%
    16:00 +24°C° 0 mm 2 mps 754 mmHg 62%
    17:00 +23°C° 0 mm 2 mps 754 mmHg 65%
    18:00 +20°C° 0 mm 2 mps 754 mmHg 70%
    19:00 +19°C° 0 mm 2 mps 754 mmHg 75%
    20:00 +17°C° 0 mm 2 mps 754 mmHg 81%
    21:00 +17°C° 0 mm 2 mps 754 mmHg 82%
    22:00 +16°C° 0 mm 2 mps 754 mmHg 84%
    23:00 +16°C° 0 mm 2 mps 754 mmHg 86%

    30 August, Friday

    Time Temperature Precipitation Wind Pressure Humidity
    00:00 +16°C° 0 mm 2 mps 753 mmHg 86%
    01:00 +16°C° 0 mm 2 mps 753 mmHg 86%
    02:00 +16°C° 0 mm 2 mps 753 mmHg 86%
    03:00 +16°C° 0 mm 2 mps 753 mmHg 85%
    04:00 +16°C° 0 mm 3 mps 752 mmHg 84%
    05:00 +14°C° 0 mm 3 mps 752 mmHg 83%
    06:00 +16°C° 0 mm 3 mps 752 mmHg 80%
    07:00 +16°C° 0 mm 3 mps 752 mmHg 76%
    08:00 +15°C° 0 mm 4 mps 752 mmHg 73%
    09:00 +18°C° 0 mm 4 mps 751 mmHg 66%
    10:00 +19°C° 0 mm 5 mps 751 mmHg 59%
    11:00 +20°C° 0 mm 5 mps 751 mmHg 52%
    12:00 +21°C° 0 mm 5 mps 751 mmHg 49%
    13:00 +21°C° 0 mm 6 mps 750 mmHg 47%
    14:00 +22°C° 0 mm 6 mps 750 mmHg 44%
    15:00 +21°C° 0 mm 5 mps 750 mmHg 48%
    16:00 +20°C° 0 mm 5 mps 750 mmHg 51%
    17:00 +19°C° 0 mm 5 mps 749 mmHg 55%
    18:00 +17°C° 0.7 mm 5 mps 749 mmHg 67%
    19:00 +15°C° 0.7 mm 5 mps 749 mmHg 78%
    20:00 +14°C° 0.7 mm 5 mps 749 mmHg 90%
    21:00 +14°C° 0.1 mm 5 mps 749 mmHg 91%
    22:00 +14°C° 0.1 mm 4 mps 749 mmHg 92%
    23:00 +14°C° 0.1 mm 4 mps 749 mmHg 92%
    Show more